Regional Weather Roundup
Issued by NWS

Home | Current Version | Previous Version | Text Only | Print | Product List | Glossary Off
Versions: 1 2 3 4 5 6 7 8 9 10 11 12 13 14 15 16 17 18 19 20 21 22 23 24 25 26 27 28 29 30 31 32 33 34 35 36 37 38 39 40 41 42 43 44 45 46 47 48 49 50

920
ASUS44 KLIX 201710
RWRLA
LOUISIANA WEATHER ROUNDUP
NATIONAL WEATHER SERVICE NEW ORLEANS LA
1200 PM CDT WED AUG 20 2014

NOTE: "FAIR" INDICATES FEW OR NO CLOUDS BELOW 12,000 FEET WITH NO
      SIGNIFICANT WEATHER AND/OR OBSTRUCTIONS TO VISIBILITY.
      SKY/WX - SKY CONDITION AND SIGNIFICANT WEATHER.
      TMP - AIR TEMPERATURE.    DP   - DEWPOINT TEMPERATURE.
      RH  - RELATIVE HUMIDITY.  PRES - PRESSURE.
      HX  - HEAT INDEX.         WCI  - WIND CHILL INDEX.

*  THESE STATIONS ARE NOT NWS OR FAA STATIONS AND ARE NOT UNDER
   NWS QUALITY CONTROL.

LAZ040-048-061>063-065-066-069-201800-
SOUTHEAST LOUISIANA

CITY           SKY/WX    TMP DP  RH WIND       PRES   REMARKS
N.O. AUDUBON     N/A     98  74  46 MISG        N/A  HX 109
N.O. INTL ARPT PTSUNNY   90  76  63 VRB5      30.08S HX 101
N.O. LAKEFRONT SUNNY     90  77  65 NE8       30.09S HX 103
N.O. DOWNTOWN* FAIR      91  70  49 CALM      30.09S HX  97
SLIDELL        SUNNY     91  71  51 VRB5      30.08S HX  97
BATON ROUGE    PTSUNNY   92  74  55 S7        30.07S HX 101
BOOTHVILLE     SUNNY     89  75  63 SW7       30.10S HX  99
BELLE CHASSE   PTSUNNY   92  72  51 SW6       30.07F HX  99
BOGALUSA*      FAIR      91  71  52 W5        30.11S HX  97
GALLIANO*      NOT AVBL
NEW ROADS*     PTSUNNY   89  76  65 CALM      30.07S HX  99
GONZALES*      FAIR      91  77  63 E6        30.07S HX 103
HAMMOND*       SUNNY     91  70  49 W5        30.10S HX  97
HOUMA*         MOSUNNY   93  73  52 S7        30.07S HX 102
PORT FOURCHON* PTSUNNY   90  77  66 S9        30.10S HX 102

$$

LAZ041-044-053-054-201800-
SOUTHWEST LOUISIANA

CITY           SKY/WX    TMP DP  RH WIND       PRES   REMARKS
LAKE CHARLES   SUNNY     90  77  65 S7        30.04S HX 103
LAFAYETTE      MOSUNNY   90  77  65 S3        30.06S HX 103
PATTERSON      MOSUNNY  N/A N/A N/A MISG        N/A
SALT POINT       N/A     92  78  63 VRB5      30.07R HX 107
NEW IBERIA     MOSUNNY   93  76  57 S10       30.06F HX 105
CHENAULT AIRPK PTSUNNY   90  73  58 S8        30.05S HX  98

$$

LAZ027-028-201800-
CENTRAL LOUISIANA

CITY           SKY/WX    TMP DP  RH WIND       PRES   REMARKS
FORT POLK      PTSUNNY   88  73  62 SW5       30.05F HX  96
ALEXANDRIA INT MOSUNNY   89  75  63 S7        30.04S HX  99
ALEXANDRIA     PTSUNNY   89  76  65 SW8       30.07R HX 100

$$

LAZ001-002-201800-
NORTHWEST LOUISIANA

CITY           SKY/WX    TMP DP  RH WIND       PRES   REMARKS
SHREVEPORT     MOSUNNY   91  69  48 S8        30.03S HX  96
BARKSDALE AFB  SUNNY     91  67  45 SW8       30.03F
DTN SHREVEPORT SUNNY     90  68  48 SW12      30.03F

$$

LAZ014-016-201800-
NORTHEAST LOUISIANA

CITY           SKY/WX    TMP DP  RH WIND       PRES   REMARKS
MONROE         MOSUNNY   87  74  64 CALM      30.07F HX  95
TALLULAH       MOSUNNY   87  71  58 VRB3      30.08S

$$




USA.gov is the U.S. government's official web portal to all federal, state and local government web resources and services.